Location: Hoyos del Collado
(40.3594°N, 5.2003°W)
Time: 01:43:08
(UTC+00:00)

ERS-1 Rocket - Pass Details

Date: 18 April 2024
Orbit: 751 x 754 km, 98.3° (Epoch: 25 May)

Event Time Altitude Azimuth Distance (km) Brightness Sun altitude
Exits shadow 21:31:49 80° 110° (ESE) 768 2.8 -25.4°
Maximum altitude 21:31:59 82° 76° (ENE) 764 2.8 -25.4°
Drops below altitude 10° 21:37:01 10° 349° (N) 2,283 6.1 -26.1°
Sets 21:39:19 0° 349° (NNW) 3,212 7.1 -26.4°
